Weather Roundup
Issued by NWS Springfield, MO

Home | Current Version | Previous Version | Text Only | Print | Product List | Glossary On
Versions: 1 2 3 4 5 6 7 8 9 10 11 12 13 14 15 16 17 18 19 20 21 22 23 24 25 26 27 28 29 30 31 32 33 34 35 36 37 38 39 40 41 42 43 44 45 46 47 48 49 50
000
NZUS99 KSGF 020907
HRRSGF

HOURLY WEATHER
NATIONAL WEATHER SERVICE SPRINGFIELD MO
400 AM CDT SAT AUG 02 2014

......SGF CWA......

CITY           SKY/WX    TMP DP  RH WIND       PRES   REMARKS
SPRINGFIELD    PTCLDY    67  62  84 CALM      30.10S
JOPLIN         PTCLDY    65  63  93 CALM      30.10R
WEST PLAINS    PTCLDY    62  59  90 CALM      30.10F
ROLLA          CLEAR     63  60  90 E3        30.09R
OSAGE BEACH    CLEAR     61  57  88 CALM      30.09S
BRANSON        CLOUDY    64  64 100 CALM      30.12R

......SURROUNDING SGF CWA......

CITY           SKY/WX    TMP DP  RH WIND       PRES   REMARKS
CHANUTE        CLEAR     65  62  90 E3        30.10R
PARSONS        CLEAR     62  60  93 CALM      30.10R FOG
COFFEYVILLE    CLEAR     64  62  93 CALM      30.08S
EMPORIA        RAIN      70  65  84 SW3       30.10R
GROVE OK         N/A     64  64 100 CALM      30.11R FOG
ROGERS AR      CLEAR     65  63  93 CALM      30.12R
SILOAM SPRINGS CLEAR     64  57  77 CALM      30.12R
HARRISON AR    CLEAR     62  62 100 W3        30.11S
NEAR YELLVILLE PTCLDY    64  63  94 CALM      30.08F

......KANSAS AND MISSOURI......

CITY           SKY/WX    TMP DP  RH WIND       PRES   REMARKS
KANSAS CTY INT CLEAR     68  60  75 CALM      30.11R
DOWNTOWN KC    CLEAR     71  63  75 CALM      30.09S
COLUMBIA       CLEAR     60  60 100 NE5       30.11S FOG
SEDALIA        CLEAR     65  60  84 CALM      30.11S
ST JOSEPH      CLEAR     61  59  93 CALM      30.11S
ST LOUIS       PTCLDY    64  63  94 N3        30.10R FOG
SPIRIT OF STL  FOG       65  64  97 CALM      30.09R VSB<1/4
KIRKSVILLE     FOG       56  55  97 SW3       30.13R VSB 1/2
WICHITA        PTCLDY    66  63  90 S5        30.07F
TOPEKA         PTCLDY    69  64  84 E3        30.10S
OLATHE         CLEAR     67  61  81 CALM      30.10S

......TENNESSEE......

CITY           SKY/WX    TMP DP  RH WIND       PRES   REMARKS
MEMPHIS        PTCLDY    76  64  66 E3        30.03S
NASHVILLE      MOCLDY    71  67  87 CALM      30.04S

......ARKANSAS.......

CITY           SKY/WX    TMP DP  RH WIND       PRES   REMARKS
FAYETTEVILLE   FOG       62  62 100 CALM      30.11R VSB 3/4
FT SMITH       CLEAR     68  66  93 CALM      30.07S FOG
LITTLE ROCK    MOCLDY    71  67  87 N5        30.04S

......OKLAHOMA.......

CITY           SKY/WX    TMP DP  RH WIND       PRES   REMARKS
TULSA          PTCLDY    69  65  86 CALM      30.06S
PONCA CITY     PTCLDY    69  64  84 SE5       30.08S
MCALESTER      PTCLDY    64  62  93 CALM      30.08S FOG
OKLAHOMA CITY  PTCLDY    65  62  90 S3        30.10R

......IOWA............

CITY           SKY/WX    TMP DP  RH WIND       PRES   REMARKS
DES MOINES     CLEAR     64  59  83 W3        30.12R
QUAD CITIES    CLEAR     61  58  90 CALM      30.11R

......ILLINOIS........

CITY           SKY/WX    TMP DP  RH WIND       PRES   REMARKS
QUINCY         FOG       60  58  92 SW6       30.10R VSB 3/4
CHICAGO        PTCLDY    63  54  72 NW8       30.11R



USA.gov is the U.S. government's official web portal to all federal, state and local government web resources and services.